TimeCST,TemperatureF,Dew PointF,Humidity,Sea Level PressureIn,VisibilityMPH,Wind Direction,Wind SpeedMPH,Gust SpeedMPH,PrecipitationIn,Events,Conditions,WindDirDegrees,DateUTC
12:53 AM,32.0,12.0,44,30.02,10.0,SSW,4.6,-,N/A,,Clear,200,2014-01-31 06:53:00
1:53 AM,27.0,18.0,69,30.03,10.0,Calm,Calm,-,N/A,,Clear,0,2014-01-31 07:53:00
2:53 AM,26.1,17.1,69,30.04,10.0,Calm,Calm,-,N/A,,Clear,0,2014-01-31 08:53:00
3:53 AM,25.0,17.1,72,30.04,10.0,Calm,Calm,-,N/A,,Clear,0,2014-01-31 09:53:00
4:53 AM,24.1,16.0,71,30.04,10.0,Calm,Calm,-,N/A,,Clear,0,2014-01-31 10:53:00
5:53 AM,26.1,18.0,71,30.06,10.0,Calm,Calm,-,N/A,,Mostly Cloudy,0,2014-01-31 11:53:00
6:53 AM,28.9,19.9,69,30.06,10.0,Calm,Calm,-,N/A,,Overcast,0,2014-01-31 12:53:00
7:53 AM,30.0,19.9,66,30.06,10.0,ENE,3.5,-,N/A,,Overcast,60,2014-01-31 13:53:00
8:53 AM,35.1,21.0,57,30.08,10.0,Calm,Calm,-,N/A,,Overcast,0,2014-01-31 14:53:00
9:53 AM,37.0,23.0,57,30.10,10.0,North,5.8,-,N/A,,Overcast,10,2014-01-31 15:53:00
10:46 AM,37.9,23.0,55,30.06,10.0,ENE,4.6,-,N/A,,Overcast,60,2014-01-31 16:46:00
10:53 AM,37.9,23.0,55,30.08,10.0,NE,4.6,-,N/A,,Overcast,50,2014-01-31 16:53:00
11:01 AM,37.9,23.0,55,30.06,10.0,ENE,4.6,-,N/A,,Overcast,60,2014-01-31 17:01:00
11:11 AM,39.0,23.0,53,30.06,10.0,ENE,3.5,-,N/A,,Overcast,70,2014-01-31 17:11:00
11:53 AM,42.1,19.9,41,30.05,10.0,SE,8.1,-,N/A,,Overcast,130,2014-01-31 17:53:00
12:53 PM,39.0,30.0,70,30.04,5.0,South,6.9,-,N/A,,Haze,170,2014-01-31 18:53:00
1:01 PM,37.9,30.9,76,30.01,4.0,South,5.8,-,0.00,Rain,Light Rain,170,2014-01-31 19:01:00
1:11 PM,37.9,32.0,79,30.01,1.8,SSE,5.8,-,0.00,Rain,Light Rain,150,2014-01-31 19:11:00
1:18 PM,37.0,32.0,82,30.01,3.0,SE,3.5,-,0.01,Rain,Light Rain,140,2014-01-31 19:18:00
1:26 PM,37.0,32.0,82,30.00,1.8,SE,4.6,-,0.01,,Haze,130,2014-01-31 19:26:00
1:50 PM,37.4,33.8,87,29.99,1.0,SE,4.6,-,0.02,Snow,Light Snow,130,2014-01-31 19:50:00
1:53 PM,37.0,33.1,86,30.01,1.0,ESE,3.5,-,0.02,,Overcast,120,2014-01-31 19:53:00
2:00 PM,37.0,33.1,86,29.99,1.5,SE,4.6,-,0.00,,Overcast,130,2014-01-31 20:00:00
2:50 PM,37.4,33.8,87,29.99,1.5,East,4.6,-,0.02,Rain,Light Rain,80,2014-01-31 20:50:00
2:53 PM,37.0,33.1,86,30.01,1.5,ENE,4.6,-,0.02,Rain,Light Rain,70,2014-01-31 20:53:00
3:53 PM,37.0,33.1,86,30.01,1.2,East,5.8,-,0.03,Rain,Light Rain,80,2014-01-31 21:53:00
4:13 PM,37.0,33.1,86,29.99,1.5,East,6.9,-,0.01,Rain,Light Rain,80,2014-01-31 22:13:00
4:53 PM,37.0,32.0,82,30.01,2.0,ENE,5.8,-,0.02,,Overcast,70,2014-01-31 22:53:00
5:06 PM,37.0,32.0,82,30.00,1.8,ENE,5.8,-,0.00,,Overcast,60,2014-01-31 23:06:00
5:19 PM,37.0,32.0,82,30.00,2.0,East,5.8,-,0.01,,Overcast,80,2014-01-31 23:19:00
5:33 PM,37.0,32.0,82,29.99,2.0,East,5.8,-,0.01,,Overcast,80,2014-01-31 23:33:00
5:53 PM,37.0,32.0,82,30.01,3.0,ENE,5.8,-,0.01,,Haze,70,2014-01-31 23:53:00
6:53 PM,36.0,32.0,86,30.00,3.0,East,5.8,-,0.01,,Overcast,80,2014-02-01 00:53:00
7:08 PM,36.0,32.0,86,29.98,2.5,ENE,5.8,-,N/A,,Overcast,70,2014-02-01 01:08:00
7:53 PM,36.0,33.1,89,30.00,2.5,NE,3.5,-,N/A,,Overcast,50,2014-02-01 01:53:00
8:16 PM,36.0,32.0,86,29.98,1.5,North,4.6,-,N/A,,Overcast,360,2014-02-01 02:16:00
8:46 PM,36.0,32.0,86,29.98,2.0,NNE,3.5,-,N/A,,Overcast,30,2014-02-01 02:46:00
8:53 PM,36.0,32.0,86,29.99,2.0,NE,3.5,-,N/A,,Overcast,40,2014-02-01 02:53:00
9:40 PM,36.0,33.1,89,29.96,2.5,NE,4.6,-,N/A,,Overcast,50,2014-02-01 03:40:00
9:53 PM,36.0,32.0,86,29.97,2.0,NNE,5.8,-,N/A,,Overcast,30,2014-02-01 03:53:00
10:44 PM,37.0,33.1,86,29.96,3.0,North,5.8,-,N/A,,Overcast,10,2014-02-01 04:44:00
10:53 PM,37.0,33.1,86,29.97,3.0,NNE,4.6,-,N/A,,Overcast,30,2014-02-01 04:53:00
11:54 PM,37.0,33.1,86,29.96,-9999.0,NNE,4.6,-,N/A,,Unknown,30,2014-02-01 05:54:00